Member login
oder Login
 

Workout from  Alexander Tyuryaev

Basic data

Sport Running
Date Tuesday, 13/08/2019
Starting time 13:28 o`clock
Duration 0:02:41
Distance 0.51 km  (1 Lap)
Average pace 11.34 km/h
05:17.55 min/km
Exercise method Not specified
Exercise type Not specified
Load/ intensity Not specified

Description

Bio data

Calorie consumption 1 kcal
Heart rate

Personal condition

Charts

Interim times

Distance Interim pace
(min/km)
Interim time
(hh:mm:ss)
Difference time
(hh:mm:ss)
0.01 km 00:00.0 0:00:04 0:00:04
0.02 km 00:00.0 0:00:07 0:00:03
0.03 km 00:00.0 0:00:11 0:00:04
0.04 km 00:00.0 0:00:14 0:00:03
0.05 km 00:00.0 0:00:16 0:00:02
0.06 km 00:00.0 0:00:19 0:00:03
0.07 km 00:00.0 0:00:22 0:00:03
0.08 km 00:00.0 0:00:25 0:00:03
0.09 km 00:00.0 0:00:28 0:00:03
0.1 km 00:00.0 0:00:31 0:00:03
0.11 km 00:00.0 0:00:34 0:00:03
0.12 km 00:00.0 0:00:37 0:00:03
0.13 km 00:00.0 0:00:41 0:00:04
0.14 km 00:00.0 0:00:44 0:00:03
0.15 km 00:00.0 0:00:47 0:00:03
0.16 km 00:00.0 0:00:51 0:00:04
0.17 km 00:00.0 0:00:54 0:00:03
0.18 km 00:00.0 0:00:57 0:00:03
0.19 km 00:00.0 0:01:01 0:00:04
0.2 km 00:00.0 0:01:04 0:00:03
0.21 km 00:00.0 0:01:07 0:00:03
0.22 km 00:00.0 0:01:11 0:00:04
0.23 km 00:00.0 0:01:14 0:00:03
0.24 km 00:00.0 0:01:17 0:00:03
0.25 km 00:00.0 0:01:21 0:00:04
0.26 km 00:00.0 0:01:24 0:00:03
0.27 km 00:00.0 0:01:28 0:00:04
0.28 km 00:00.0 0:01:32 0:00:04
0.29 km 00:00.0 0:01:35 0:00:03
0.3 km 00:00.0 0:01:38 0:00:03
0.31 km 00:00.0 0:01:41 0:00:03
0.32 km 00:00.0 0:01:44 0:00:03
0.33 km 00:00.0 0:01:47 0:00:03
0.34 km 00:00.0 0:01:50 0:00:03
0.35 km 00:00.0 0:01:53 0:00:03
0.36 km 00:00.0 0:01:57 0:00:04
0.37 km 00:00.0 0:02:00 0:00:03
0.38 km 00:00.0 0:02:04 0:00:04
0.39 km 00:00.0 0:02:07 0:00:03
0.4 km 00:00.0 0:02:10 0:00:03
0.41 km 00:00.0 0:02:13 0:00:03
0.42 km 00:00.0 0:02:16 0:00:03
0.43 km 00:00.0 0:02:19 0:00:03
0.44 km 00:00.0 0:02:22 0:00:03
0.45 km 00:00.0 0:02:25 0:00:03
0.46 km 00:00.0 0:02:28 0:00:03
0.47 km 00:00.0 0:02:31 0:00:03
0.48 km 00:00.0 0:02:34 0:00:03
0.49 km 00:00.0 0:02:36 0:00:02
0.5 km 00:00.0 0:02:39 0:00:03